CZ-6A DEB

Satellite information

Favourite Embed

Satellite Type and Status

DEBRISIN ORBIT

Key statistics

Satellite CZ-6A DEB at a glance.

Uptime

333

Days in orbit

Revolutions

≈ 14.6

Per day

Orbit

LEO

Low Earth Orbit

Inclination

88.8

Latest

Satellite identification and parameters

Extended collection of information and parameters for CZ-6A DEB.

Object identification

Identified? True

Debris? True

Object name: CZ-6A DEB

International designator: 2024-140TU

Object number (NORAD): 61307

Object ID (CCSDS): 61307

Country: PEOPLES REPUBLIC OF CHINA (PRC)

Current information (Y/N): Y

RCS size: SMALL

Orbital parameters

Period: 98.873 minutes

Inclination: 88.7964 deg

SMA: 7082.92 km

Apoapsis: 777.588 km

Periapsis: 631.982 km

RAAN: 303.1207 deg

Eccentricy: 0.0102787

Argument of periapsis: 339.5677 deg

Mean anomaly: 20.1434 deg

Mean motion: 14.56411957 rev/day

Mean motion (dot): 0.00001644 rev/day2

B* drag term: 0.00034118 1/REarth

Two-line elements (TLE)

Creation date: July 4, 2025, 10:46 p.m.

Reference frame: TEME

Reference center: EARTH

Epoch: July 4, 2025, 6:22 p.m. UTC

TLE line 0: 0 CZ-6A DEB

TLE line 1: 1 61307U 24140TU 25185.76570884 .00001644 00000-0 34118-3 0 9999

TLE line 2: 2 61307 88.7964 303.1207 0102787 339.5677 20.1434 14.56411957 45165

Live tracking on map

Real-time ground track for satellite CZ-6A DEB.

In-orbit conjunctions

A list of the most updated potential collisions computed for object CZ-6A DEB.

Target Orbit TCA Probability of collision Miss distance Type
FENGYUN 1C DEB SSO 2025-02-12 06:40:24 0.01105492 32.0 (m) DEBRIS
FENGYUN 1C DEB SSO 2025-01-20 22:19:02 0.0001054033 603.0 (m) DEBRIS
COSMOS 2251 LEO 2025-01-08 10:05:04 0.0003114465 401.0 (m) PAYLOAD
CZ-6A DEB LEO 2024-12-26 03:28:14 0.0001225899 670.0 (m) DEBRIS
FENGYUN 1C DEB SSO 2024-11-21 21:17:57 0.0007693289 88.0 (m) DEBRIS

Associated space launch

18 Low Earth Orbit communication satellites with Ku, Q and V band payloads for the G60 constellation operated by Shanghai Spacecom Satellite Technology (SSST) with funding backed by the Shanghai local government. Initial constellation will consist of 1296 satellites by 2027 with long term plans to expand it to 12000 satellites.

CZ-6A DEB was lifted into orbit during the mission ‘Long March 6A | G60 Polar Group 01’, on board a Long March 6A space rocket.

The launch took place on Aug. 6, 2024, 6:42 a.m. from Launch Complex 9A.

For more information about the launch, click the button.

Launch to space Long March 6A | G60 Polar Group 01
Long March 6A | G60 Polar Group 01

Agency: N/A

Status: Launch Successful

Launch date: Aug. 6, 2024, 6:42 a.m. UTC

Rocket: Long March 6A

Launch pad: Launch Complex 9A

Location: Taiyuan Satellite Launch Center, People's Republic of China

...

Latest news about this satellite

News about space launch
Brightness of first Chinese broadband constellation satellites alarms astronomers

The first satellites of a Chinese broadband constellation are significantly brighter than those of Western systems, posing a new challenge for astronomers.

News about space launch
Chinese rocket stage breaks up into cloud of more than 700 pieces of space debris

HELSINKI — A Chinese Long March 6A rocket’s upper stage has fragmented into a cloud of over 700 pieces of space debris, adding to concerns about long-term orbital safety. China […]

News about space launch
China's Thousand Sails Megaconstellation Kicks Off with Dangerous Debris Field

China's Thousand Sails Megaconstellation Kicks Off with Dangerous Debris Field


Newsletter sign-up

Weekly statistics, charts and insights to help you stay on top of the space industry.